TimeEST,TemperatureF,Dew PointF,Humidity,Sea Level PressureIn,VisibilityMPH,Wind Direction,Wind SpeedMPH,Gust SpeedMPH,PrecipitationIn,Events,Conditions,WindDirDegrees,DateUTC
12:54 AM,39.0,30.0,70,30.32,10.0,North,3.5,-,N/A,,Scattered Clouds,360,2012-12-01 05:54:00
1:54 AM,39.0,30.9,73,30.32,10.0,Calm,Calm,-,N/A,,Mostly Cloudy,0,2012-12-01 06:54:00
2:54 AM,37.0,28.9,73,30.33,10.0,Calm,Calm,-,N/A,,Scattered Clouds,0,2012-12-01 07:54:00
3:54 AM,33.1,28.0,82,30.33,10.0,Calm,Calm,-,N/A,,Clear,0,2012-12-01 08:54:00
4:54 AM,30.0,26.1,85,30.35,10.0,Calm,Calm,-,N/A,,Clear,0,2012-12-01 09:54:00
5:54 AM,30.9,27.0,85,30.36,10.0,Calm,Calm,-,N/A,,Clear,0,2012-12-01 10:54:00
6:54 AM,30.0,27.0,88,30.39,10.0,Calm,Calm,-,N/A,,Clear,0,2012-12-01 11:54:00
7:54 AM,32.0,27.0,82,30.40,10.0,Calm,Calm,-,N/A,,Clear,0,2012-12-01 12:54:00
8:54 AM,41.0,32.0,70,30.42,10.0,Calm,Calm,-,N/A,,Clear,0,2012-12-01 13:54:00
9:54 AM,46.0,30.9,56,30.43,10.0,NNE,6.9,-,N/A,,Clear,20,2012-12-01 14:54:00
10:54 AM,51.1,30.9,46,30.42,10.0,Calm,Calm,-,N/A,,Clear,0,2012-12-01 15:54:00
11:54 AM,53.1,30.9,43,30.39,10.0,Calm,Calm,-,N/A,,Clear,0,2012-12-01 16:54:00
12:54 PM,57.0,33.1,40,30.37,10.0,Variable,3.5,-,N/A,,Clear,0,2012-12-01 17:54:00
1:54 PM,59.0,33.1,38,30.35,10.0,Calm,Calm,-,N/A,,Clear,0,2012-12-01 18:54:00
2:54 PM,59.0,35.1,41,30.34,10.0,Calm,Calm,-,N/A,,Clear,0,2012-12-01 19:54:00
3:54 PM,59.0,35.1,41,30.34,10.0,East,3.5,-,N/A,,Clear,100,2012-12-01 20:54:00
4:54 PM,54.0,35.1,49,30.35,10.0,SE,4.6,-,N/A,,Clear,130,2012-12-01 21:54:00
5:54 PM,46.9,35.1,63,30.37,10.0,Calm,Calm,-,N/A,,Clear,0,2012-12-01 22:54:00
6:54 PM,44.1,35.1,71,30.39,10.0,Calm,Calm,-,N/A,,Clear,0,2012-12-01 23:54:00
7:54 PM,42.1,34.0,73,30.40,10.0,Calm,Calm,-,N/A,,Clear,0,2012-12-02 00:54:00
8:54 PM,39.0,34.0,82,30.40,10.0,Calm,Calm,-,N/A,,Clear,0,2012-12-02 01:54:00
9:54 PM,39.0,33.1,79,30.40,10.0,Calm,Calm,-,N/A,,Clear,0,2012-12-02 02:54:00
10:54 PM,37.0,33.1,86,30.40,10.0,Calm,Calm,-,N/A,,Clear,0,2012-12-02 03:54:00
11:54 PM,39.0,33.1,79,30.40,10.0,NE,3.5,-,N/A,,Clear,40,2012-12-02 04:54:00